| time (UTC) | temp F | wind direction | speed MPH | gust MPH | rain 1hr in | rain 24hr in | rain mn in | humidity % | barometer mb |
| 20260831134354 | 53 | 132 | 4.0 | 12.0 | 0.00 | 0.24 | 0.00 | 76 | 1025.3 |
| 20260831133357 | 53 | 157 | 4.0 | 12.0 | 0.00 | 0.24 | 0.00 | 77 | 1025.1 |
| 20260831132339 | 52 | 144 | 4.0 | 13.0 | 0.00 | 0.24 | 0.00 | 78 | 1025.2 |
| 20260831131348 | 52 | 163 | 4.0 | 13.0 | 0.00 | 0.24 | 0.00 | 78 | 1025.1 |
| 20260831130400 | 52 | 136 | 3.0 | 11.0 | 0.00 | 0.24 | 0.00 | 78 | 1025.0 |
| 20260831125350 | 52 | 135 | 4.0 | 12.0 | 0.00 | 0.24 | 0.00 | 78 | 1024.9 |
| 20260831124351 | 51 | 151 | 4.0 | 12.0 | 0.00 | 0.24 | 0.00 | 79 | 1024.8 |
| 20260831123337 | 51 | 166 | 4.0 | 11.0 | 0.00 | 0.24 | 0.00 | 79 | 1024.8 |
| 20260831122351 | 51 | 139 | 3.0 | 11.0 | 0.00 | 0.24 | 0.00 | 78 | 1024.8 |
| 20260831121407 | 52 | 135 | 3.0 | 10.0 | 0.00 | 0.24 | 0.00 | 77 | 1024.9 |
| 20260831120355 | 52 | 144 | 5.0 | 13.0 | 0.00 | 0.24 | 0.00 | 77 | 1025.1 |
| 20260831115413 | 52 | 157 | 4.0 | 15.0 | 0.00 | 0.24 | 0.00 | 76 | 1025.0 |
| 20260831114425 | 52 | 140 | 4.0 | 15.0 | 0.00 | 0.24 | 0.00 | 76 | 1025.1 |
| 20260831113416 | 52 | 179 | 4.0 | 14.0 | 0.00 | 0.24 | 0.00 | 75 | 1025.2 |
| 20260831112430 | 52 | 158 | 5.0 | 14.0 | 0.00 | 0.24 | 0.00 | 74 | 1025.2 |
| 20260831110259 | 51 | 148 | 5.0 | 12.0 | 0.00 | 0.24 | 0.00 | 69 | 1025.2 |
| 20260831104124 | 49 | 169 | 4.0 | 8.0 | 0.00 | 0.24 | 0.00 | 71 | 1025.0 |
| 20260831103147 | 49 | 142 | 3.0 | 8.0 | 0.00 | 0.25 | 0.00 | 71 | 1025.0 |
| 20260831102147 | 49 | 158 | 3.0 | 9.0 | 0.00 | 0.25 | 0.00 | 73 | 1025.0 |
| 20260831101123 | 49 | 148 | 4.0 | 9.0 | 0.00 | 0.25 | 0.00 | 74 | 1025.1 |
| 20260831100120 | 49 | 145 | 3.0 | 9.0 | 0.00 | 0.25 | 0.00 | 74 | 1025.0 |
| 20260831095140 | 49 | 130 | 6.0 | 11.0 | 0.00 | 0.25 | 0.00 | 74 | 1025.0 |
| 20260831094137 | 49 | 109 | 5.0 | 11.0 | 0.00 | 0.25 | 0.00 | 75 | 1025.1 |
| 20260831093130 | 49 | 145 | 5.0 | 10.0 | 0.00 | 0.25 | 0.00 | 77 | 1025.0 |
| 20260831091026 | 50 | 107 | 5.0 | 12.0 | 0.00 | 0.27 | 0.00 | 77 | 1024.9 |
| 20260831090025 | 50 | 142 | 5.0 | 10.0 | 0.00 | 0.27 | 0.00 | 76 | 1025.0 |
| 20260831085015 | 50 | 147 | 4.0 | 14.0 | 0.00 | 0.27 | 0.00 | 76 | 1025.1 |
| 20260831083944 | 51 | 167 | 6.0 | 14.0 | 0.00 | 0.27 | 0.00 | 74 | 1025.1 |
| 20260831082941 | 51 | 167 | 6.0 | 12.0 | 0.00 | 0.27 | 0.00 | 73 | 1025.1 |
| 20260831080851 | 49 | 171 | 2.0 | 9.0 | 0.00 | 0.29 | 0.00 | 76 | 1025.3 |
| 20260831075914 | 49 | 146 | 3.0 | 10.0 | 0.00 | 0.29 | 0.00 | 77 | 1025.2 |
| 20260831074934 | 48 | 171 | 1.0 | 7.0 | 0.00 | 0.29 | 0.00 | 77 | 1025.3 |
| 20260831073927 | 48 | 137 | 2.0 | 8.0 | 0.00 | 0.29 | 0.00 | 77 | 1025.4 |
| 20260831072918 | 49 | 146 | 0.0 | 8.0 | 0.00 | 0.29 | 0.00 | 76 | 1025.5 |
| 20260831070744 | 49 | 153 | 1.0 | 10.0 | 0.00 | 0.29 | 0.00 | 77 | 1025.5 |
| 20260831064627 | 49 | 169 | 3.0 | 10.0 | 0.00 | 0.29 | 0.00 | 78 | 1025.5 |
| 20260831063627 | 49 | 178 | 2.0 | 8.0 | 0.00 | 0.29 | 0.00 | 78 | 1025.5 |
| 20260831062635 | 49 | 138 | 2.0 | 8.0 | 0.00 | 0.29 | 0.00 | 78 | 1025.4 |
| 20260831061604 | 49 | 167 | 2.0 | 8.0 | 0.00 | 0.29 | 0.00 | 79 | 1025.5 |
| 20260831060549 | 49 | 150 | 2.0 | 7.0 | 0.00 | 0.29 | 0.00 | 79 | 1025.5 |
| 20260831055544 | 49 | 142 | 3.0 | 11.0 | 0.00 | 0.31 | 0.30 | 80 | 1025.5 |
| 20260831054559 | 49 | 167 | 3.0 | 9.0 | 0.00 | 0.33 | 0.30 | 80 | 1025.4 |
| 20260831052452 | 50 | 147 | 3.0 | 12.0 | 0.00 | 0.37 | 0.30 | 80 | 1025.4 |
| 20260831050319 | 50 | 134 | 4.0 | 11.0 | 0.00 | 0.41 | 0.30 | 81 | 1025.5 |
| 20260831045246 | 49 | 155 | 2.0 | 8.0 | 0.00 | 0.44 | 0.30 | 82 | 1025.5 |
| 20260831044247 | 49 | 141 | 1.0 | 7.0 | 0.00 | 0.48 | 0.30 | 82 | 1025.5 |
| 20260831043255 | 49 | 153 | 4.0 | 10.0 | 0.00 | 0.49 | 0.30 | 83 | 1025.4 |
| 20260831042308 | 49 | 130 | 4.0 | 10.0 | 0.00 | 0.49 | 0.30 | 83 | 1025.4 |
| 20260831041329 | 49 | 145 | 3.0 | 8.0 | 0.00 | 0.51 | 0.30 | 83 | 1025.3 |
| 20260831040348 | 49 | 129 | 4.0 | 8.0 | 0.00 | 0.51 | 0.30 | 81 | 1025.4 |
| 20260831031950 | 49 | 155 | 1.0 | 7.0 | 0.00 | 0.51 | 0.30 | 79 | 1024.9 |
| 20260831030946 | 50 | 140 | 2.0 | 2.0 | 0.00 | 0.51 | 0.30 | 78 | 1024.7 |
| 20260831030007 | 50 | 138 | 4.0 | 9.0 | 0.00 | 0.51 | 0.30 | 79 | 1024.5 |
| 20260831025016 | 50 | 161 | 3.0 | 9.0 | 0.00 | 0.51 | 0.30 | 79 | 1024.3 |
| 20260831023943 | 51 | 149 | 0.0 | 0.0 | 0.00 | 0.51 | 0.30 | 78 | 1024.2 |
| 20260831022937 | 52 | 156 | 0.0 | 0.0 | 0.00 | 0.51 | 0.30 | 76 | 1024.1 |
| 20260831021907 | 53 | 154 | 2.0 | 5.0 | 0.00 | 0.52 | 0.30 | 75 | 1024.1 |
| 20260831020927 | 53 | 169 | 0.0 | 5.0 | 0.00 | 0.53 | 0.30 | 74 | 1024.1 |
| 20260831015943 | 54 | 142 | 0.0 | 0.0 | 0.00 | 0.58 | 0.30 | 71 | 1023.9 |
| 20260831014952 | 56 | 168 | 2.0 | 5.0 | 0.00 | 0.59 | 0.30 | 69 | 1023.8 |
| 20260831014009 | 57 | 182 | 0.0 | 5.0 | 0.00 | 0.59 | 0.30 | 68 | 1023.6 |
| 20260831013027 | 57 | 159 | 0.0 | 0.0 | 0.00 | 0.59 | 0.30 | 67 | 1023.6 |
| 20260831012049 | 58 | 157 | 0.0 | 0.0 | 0.00 | 0.59 | 0.30 | 67 | 1023.6 |
| 20260831004745 | 56 | 155 | 0.0 | 0.0 | 0.00 | 0.59 | 0.30 | 69 | 1023.8 |
| 20260831003737 | 56 | 155 | 0.0 | 0.0 | 0.00 | 0.59 | 0.30 | 68 | 1024.1 |
| 20260831002734 | 57 | 155 | 1.0 | 4.0 | 0.00 | 0.61 | 0.30 | 68 | 1024.1 |
| 20260831001723 | 57 | 172 | 0.0 | 2.0 | 0.00 | 0.63 | 0.30 | 68 | 1024.0 |
| 20260830235544 | 57 | 173 | 0.0 | 0.0 | 0.00 | 0.64 | 0.30 | 63 | 1023.5 |
| 20260830234606 | 57 | 197 | 0.0 | 0.0 | 0.00 | 0.66 | 0.30 | 60 | 1023.4 |
| 20260830233616 | 57 | 198 | 0.0 | 0.0 | 0.00 | 0.71 | 0.30 | 60 | 1023.5 |
| 20260830232619 | 58 | 198 | 0.0 | 0.0 | 0.00 | 0.71 | 0.30 | 60 | 1023.7 |
| 20260830231639 | 59 | 233 | 5.0 | 16.0 | 0.00 | 0.71 | 0.30 | 57 | 1023.4 |
| 20260830230611 | 61 | 97 | 1.0 | 8.0 | 0.00 | 0.71 | 0.30 | 52 | 1023.6 |
| 20260830225537 | 63 | 277 | 0.0 | 2.0 | 0.00 | 0.71 | 0.30 | 55 | 1023.8 |
| 20260830224518 | 64 | 248 | 1.0 | 4.0 | 0.00 | 0.71 | 0.30 | 52 | 1023.7 |
| 20260830223518 | 65 | 272 | 0.0 | 5.0 | 0.00 | 0.71 | 0.30 | 51 | 1023.7 |
| 20260830222444 | 65 | 283 | 1.0 | 7.0 | 0.00 | 0.71 | 0.30 | 47 | 1023.5 |
| 20260830221416 | 65 | 198 | 2.0 | 7.0 | 0.00 | 0.71 | 0.30 | 53 | 1023.6 |
| 20260830220432 | 65 | 159 | 2.0 | 6.0 | 0.00 | 0.71 | 0.30 | 50 | 1023.5 |
| 20260830215545 | 64 | 170 | 2.0 | 9.0 | 0.00 | 0.71 | 0.30 | 52 | 1023.3 |
| 20260830214552 | 64 | 205 | 2.0 | 11.0 | 0.00 | 0.71 | 0.30 | 52 | 1023.7 |
| 20260830212447 | 64 | 91 | 0.0 | 5.0 | 0.00 | 0.71 | 0.30 | 62 | 1023.7 |
| 20260830211503 | 63 | 196 | 0.0 | 0.0 | 0.00 | 0.71 | 0.30 | 66 | 1023.6 |
| 20260830205321 | 64 | 185 | 1.0 | 0.0 | 0.00 | 0.71 | 0.30 | 62 | 1023.9 |
| 20260830204313 | 65 | 205 | 3.0 | 13.0 | 0.00 | 0.71 | 0.30 | 59 | 1024.0 |
| 20260830203331 | 65 | 218 | 3.0 | 13.0 | 0.00 | 0.71 | 0.30 | 61 | 1023.9 |
| 20260830202259 | 64 | 211 | 1.0 | 9.0 | 0.00 | 0.71 | 0.30 | 63 | 1024.1 |
| 20260830201311 | 63 | 163 | 2.0 | 9.0 | 0.00 | 0.71 | 0.30 | 65 | 1024.2 |
| 20260830195219 | 64 | 184 | 2.0 | 9.0 | 0.00 | 0.71 | 0.30 | 61 | 1024.3 |
| 20260830194207 | 63 | 146 | 2.0 | 9.0 | 0.00 | 0.71 | 0.30 | 60 | 1024.3 |
| 20260830193136 | 65 | 213 | 1.0 | 10.0 | 0.00 | 0.71 | 0.30 | 60 | 1024.4 |
| 20260830192107 | 64 | 186 | 1.0 | 10.0 | 0.00 | 0.71 | 0.30 | 65 | 1024.4 |
| 20260830191041 | 63 | 302 | 0.0 | 5.0 | 0.00 | 0.71 | 0.30 | 66 | 1024.5 |
| 20260830190005 | 62 | 220 | 0.0 | 7.0 | 0.00 | 0.71 | 0.30 | 73 | 1024.7 |
| 20260830183851 | 61 | 234 | 0.0 | 6.0 | 0.00 | 0.71 | 0.30 | 72 | 1024.9 |
| 20260830182855 | 60 | 269 | 1.0 | 9.0 | 0.00 | 0.71 | 0.30 | 70 | 1024.9 |
| 20260830181848 | 59 | 149 | 2.0 | 9.0 | 0.00 | 0.71 | 0.30 | 79 | 1024.9 |
| 20260830180847 | 60 | 132 | 1.0 | 8.0 | 0.00 | 0.71 | 0.30 | 77 | 1024.7 |
| 20260830175820 | 60 | 177 | 1.0 | 8.0 | 0.00 | 0.71 | 0.30 | 81 | 1024.7 |
| 20260830173652 | 57 | 159 | 1.0 | 0.0 | 0.00 | 0.71 | 0.30 | 86 | 1024.8 |
| 20260830172658 | 56 | 150 | 2.0 | 7.0 | 0.00 | 0.71 | 0.30 | 84 | 1024.7 |
| 20260830171721 | 56 | 139 | 1.0 | 6.0 | 0.00 | 0.71 | 0.30 | 86 | 1024.6 |
| 20260830170742 | 55 | 150 | 0.0 | 3.0 | 0.00 | 0.71 | 0.30 | 88 | 1024.5 |
| 20260830164615 | 55 | 110 | 4.0 | 13.0 | 0.00 | 0.71 | 0.30 | 85 | 1024.3 |
| 20260830163635 | 55 | 119 | 6.0 | 13.0 | 0.00 | 0.71 | 0.30 | 86 | 1024.3 |
| 20260830162619 | 55 | 116 | 6.0 | 9.0 | 0.00 | 0.71 | 0.30 | 87 | 1024.2 |
| 20260830161627 | 54 | 122 | 5.0 | 9.0 | 0.00 | 0.71 | 0.30 | 88 | 1024.1 |
| 20260830160648 | 54 | 123 | 1.0 | 8.0 | 0.00 | 0.71 | 0.30 | 89 | 1024.2 |
| 20260830155628 | 53 | 123 | 1.0 | 6.0 | 0.00 | 0.71 | 0.30 | 90 | 1024.2 |
| 20260830154606 | 52 | 134 | 1.0 | 6.0 | 0.00 | 0.71 | 0.30 | 89 | 1024.3 |
| 20260830153553 | 51 | 137 | 1.0 | 5.0 | 0.00 | 0.71 | 0.30 | 90 | 1024.5 |
| 20260830152525 | 50 | 111 | 1.0 | 5.0 | 0.00 | 0.71 | 0.30 | 90 | 1024.5 |
| 20260830151549 | 49 | 150 | 2.0 | 10.0 | 0.00 | 0.71 | 0.30 | 90 | 1024.2 |
| 20260830150608 | 49 | 155 | 3.0 | 10.0 | 0.00 | 0.70 | 0.28 | 90 | 1024.6 |
| 20260830145605 | 50 | 145 | 1.0 | 8.0 | 0.00 | 0.70 | 0.28 | 90 | 1024.2 |
| 20260830144606 | 49 | 148 | 2.0 | 8.0 | 0.00 | 0.70 | 0.28 | 90 | 1024.3 |
| 20260830143546 | 49 | 169 | 3.0 | 4.0 | 0.00 | 0.70 | 0.28 | 90 | 1024.4 |
| 20260830142957 | 49 | 147 | 1.0 | 8.0 | 0.05 | 0.70 | 0.28 | 90 | 1024.7 |
| 20260830142000 | 50 | 81 | 3.0 | 10.0 | 0.46 | 0.70 | 0.28 | 89 | 1024.4 |
| 20260830140940 | 51 | 267 | 4.0 | 9.0 | 0.00 | 0.46 | 0.06 | 89 | 1023.4 |
| 20260830135913 | 51 | 109 | 4.0 | 15.0 | 0.00 | 0.46 | 0.05 | 89 | 1023.7 |